User: anonymous   Login
Location: Fort Worth, Tx
(32.7431°N, 97.3695°W)
Time: 02:35:48
(UTC-04:00)
Language:

AO-91 - Orbit

View from above orbital plane
View from above orbital plane
View from above satellite
View from above satellite

Ground track
Ground track

The orbit data is extracted from the following two-line orbital elements,

1 43017U 17073E   24110.60269508  .00017511  00000-0  11010-2 0  9997
2 43017  97.5873 348.1964 0216523 129.1531 232.9152 14.91843897346924
Epoch (UTC): 19 April 2024 14:27:52
Eccentricity: 0.0216523
inclination: 97.5873°
perigee height: 441 km
apogee height: 743 km
right ascension of ascending node: 348.1964°
argument of perigee: 129.1531°
revolutions per day: 14.91843897
mean anomaly at epoch: 232.9152°
orbit number at epoch: 34692

The dashed part of the orbit path shows where the satellite is in the earth's shadow,  

DLR